[[{"header":{"parameterUnit":"m.s-1","parameterCategory":1,"la1":30.2991,"la2":30.254,"lo1":-89.0895,"lo2":-89.0444,"dy":0.0017,"dx":0.0017,"nx":28,"ny":28,"refTime":"2023-07-30T03:00:00:Z","depth":0,"parameterNumber":2,"parameterNumberName":"U-component_of_WINDS"},"data":[0,0,0,0,0,0,0,0,0,0,0,0,0,0,0,0,0,0,0,0,0,0,0,0,0,0,0,0,0,0,0,0,0,0,0,0,0,0,0,0,0,0,0,0,0,0,0,0,0,0,0,0,0,0,0,0,0,0,3.5201,3.5202,0,3.5275,3.5275,3.5276,3.5181,3.5178,3.5174,3.5171,3.5248,3.5253,3.5258,0,0,0,0,0,0,0,0,0,0,0,0,0,3.498,3.4985,3.5201,3.5202,3.5203,3.5274,3.5275,3.5276,3.5182,3.5178,3.5174,3.517,3.5246,3.5252,3.5259,0,0,0,0,0,0,0,0,0,0,0,0,0,3.5067,3.4987,3.5201,3.5165,3.5162,3.5274,3.5275,3.5277,3.5183,3.5178,3.5172,3.5168,3.5244,3.5252,3.5259,3.5411,0,0,3.5283,3.5287,0,0,0,0,0,0,0,0,3.5063,3.5076,3.5169,3.5167,3.5165,3.5213,3.5225,3.5322,3.5184,3.5175,3.5171,3.5165,3.5241,3.5248,3.5274,3.5415,3.5418,3.5284,3.5289,3.5292,3.5295,0,0,0,0,0,0,0,3.5057,3.5072,3.523,3.517,3.5168,3.5145,3.5151,3.5243,3.5236,3.5175,3.5169,3.5179,3.5238,3.5266,3.5275,3.5419,3.5284,3.5291,3.5296,3.5299,3.5688,3.5694,0,0,0,0,0,0,3.5055,3.5068,3.5228,3.5232,3.51,3.5153,3.516,3.5203,3.5235,3.5235,3.5183,3.5174,3.5255,3.5266,3.5277,3.5457,3.5292,3.53,3.5304,3.5683,3.569,3.5696,0,0,0,0,0,0,3.505,3.507,3.5225,3.5148,3.5166,3.5162,3.5211,3.5207,3.5235,3.524,3.5239,3.5213,3.5252,3.5266,3.5378,3.5458,3.5303,3.531,3.5676,3.5685,3.5693,3.5818,0,0,0,0,0,0,3.5045,3.5069,3.5127,3.515,3.5171,3.5325,3.5216,3.5212,3.5248,3.5237,3.5268,3.5268,3.5249,3.5367,3.5386,3.5466,3.5316,3.5669,3.568,3.569,3.5806,3.5829,3.5849,0,0,0,0,0,3.5037,3.5159,3.513,3.515,3.5243,3.533,3.5342,3.5317,3.5255,3.5313,3.5317,3.5267,3.5446,3.538,3.54,3.5484,3.5664,3.5677,3.5689,3.5797,3.5825,3.5848,0,0,0,0,0,0,3.5146,3.5162,3.513,3.5263,3.5296,3.5314,3.5386,3.5347,3.5399,3.5386,3.5353,3.5361,3.5481,3.5493,3.5419,3.5632,3.5545,3.5562,3.562,3.5646,3.5667,3.5662,3.5323,0,0,0,0,0,3.5186,3.5255,3.5265,3.5382,3.54,3.5391,3.5428,3.5406,3.5439,3.5452,3.5464,3.5498,3.5562,3.5605,3.5664,3.5808,3.5813,3.5875,3.5896,3.5914,3.5929,3.6006,3.6033,3.5737,3.5737,3.5737,0,0,3.5268,3.5285,3.5332,3.5405,3.5427,3.55,3.5403,3.5485,3.5538,3.5465,3.5571,3.5581,3.5617,3.5746,3.5803,3.576,3.6012,3.593,3.5944,3.595,3.6022,3.605,3.6075,3.5746,3.5744,3.5743,0,0,3.5456,3.5476,3.5575,3.56,3.5635,3.5628,3.5652,3.5676,3.5679,3.5786,3.5732,3.5796,3.5906,3.5934,3.5963,3.616,3.6116,3.618,3.6291,3.6366,3.639,3.641,3.648,3.6506,3.6196,3.6196,3.6196,0,3.5555,3.5662,3.5632,3.5717,3.575,3.5686,3.5787,3.5812,3.5866,3.589,3.5841,3.5978,3.5998,3.6132,3.618,3.6205,3.6231,3.6177,3.6389,3.6409,3.6428,3.6494,3.6521,3.6203,3.6203,3.6202,3.6201,0,3.5781,3.5856,3.5932,3.5985,3.6027,3.6119,3.6103,3.6149,3.6123,3.6122,3.623,3.6252,3.6314,3.6344,3.632,3.6475,3.6446,3.6394,3.6305,3.6464,3.6526,3.6551,3.6214,3.6211,3.6209,3.6207,0,0,3.6041,3.6074,3.6103,3.6125,3.6159,3.6217,3.6306,3.6366,3.6406,3.6445,3.6519,3.6614,3.6565,3.6597,3.6576,3.6641,3.6796,3.658,3.658,3.6619,3.6968,3.7008,3.7038,3.6767,3.6772,3.6775,3.6965,0,3.6228,3.6382,3.6357,3.6507,3.6575,3.6515,3.6593,3.6622,3.6623,3.6681,3.6681,3.6749,3.6679,3.6698,3.6761,3.6764,3.6866,3.675,3.6836,3.6839,3.6829,3.707,3.7113,3.729,3.6989,3.6993,3.6996,0,3.6468,3.6515,3.6671,3.6693,3.6721,3.6791,3.6844,3.6901,3.6932,3.6928,3.6964,3.693,3.7019,3.6929,3.7052,3.6974,3.7007,3.7014,3.702,3.7027,3.6927,3.7084,3.7346,3.7373,3.7034,3.7031,3.7028,0,3.6642,3.6744,3.685,3.6871,3.69,3.6951,3.6965,3.6991,3.7029,3.7075,3.7099,3.7155,3.7186,3.723,3.7212,3.7148,3.7338,3.7247,3.7337,3.7338,3.738,3.7378,3.7652,3.7402,3.7401,3.7401,3.74,0,3.6854,3.6952,3.6928,3.6994,3.7101,3.7071,3.7179,3.7186,3.721,3.7276,3.7227,3.729,3.7262,3.7323,3.731,3.7413,3.7427,3.7426,3.7421,3.7431,3.7431,3.7452,3.744,3.7408,3.7406,3.7405,3.7404,0,3.7067,3.7055,3.7166,3.7184,3.719,3.7269,3.7284,3.7346,3.7341,3.7425,3.7443,3.7438,3.7507,3.7493,3.7569,3.756,3.769,3.767,3.7679,3.7674,3.7765,3.7757,3.8063,3.8101,3.7827,3.7829,3.7831,0,3.7203,3.7277,3.7302,3.7342,3.736,3.7426,3.7463,3.7437,3.7478,3.7519,3.7576,3.764,3.769,3.7804,3.7807,3.7865,3.7846,3.7949,3.7854,3.7861,3.7847,3.7843,3.785,3.7968,3.7971,3.7974,3.7976,0,3.7447,3.7437,3.7493,3.7547,3.7592,3.7634,3.767,3.7706,3.7682,3.7731,3.7801,3.784,3.7917,3.7982,3.8036,3.805,3.801,3.8005,3.8029,3.804,3.8042,3.8042,3.773,3.7999,3.7996,3.7995,3.7993,3.7992,3.7626,3.7688,3.7715,3.7779,3.7803,3.7838,3.7896,3.7899,3.7957,3.8017,3.7998,3.8077,3.8106,3.8174,3.8195,3.8257,3.8218,3.8253,3.8262,3.8271,3.8282,3.8032,3.8267,3.8266,3.8265,3.8265,3.8264,0,3.7867,3.7881,3.7939,3.7992,3.8042,3.7998,3.8036,3.808,3.8151,3.8181,3.8231,3.8311,3.8373,3.8381,3.844,3.8488,3.847,3.8504,3.85,3.8504,3.8313,3.8287,3.8517,3.8517,3.8517,3.8517,3.8517,3.8517,3.7998,3.8101,3.8094,3.8209,3.8222,3.8299,3.8324,3.8356,3.838,3.8471,3.8523,3.8527,3.8548,3.8607,3.8663,3.8663,3.8687,3.8728,3.8722,3.8543,3.8518,3.8494,3.8469,3.8734,3.8734,3.8908,3.8909,3.891]},{"header":{"parameterUnit":"m.s-1","parameterCategory":1,"la1":30.2991,"la2":30.254,"lo1":-89.0895,"lo2":-89.0444,"dy":0.0017,"dx":0.0017,"nx":28,"ny":28,"refTime":"2023-07-30T03:00:00:Z","depth":0,"parameterNumber":3,"parameterNumberName":"V-component_of_WINDS"},"data":[0,0,0,0,0,0,0,0,0,0,0,0,0,0,0,0,0,0,0,0,0,0,0,0,0,0,0,0,0,0,0,0,0,0,0,0,0,0,0,0,0,0,0,0,0,0,0,0,0,0,0,0,0,0,0,0,0,0,-0.0306,-0.0305,0,-0.0228,-0.0228,-0.0227,-0.0205,-0.0205,-0.0206,-0.0206,-0.0123,-0.012,-0.0118,0,0,0,0,0,0,0,0,0,0,0,0,0,-0.0433,-0.0431,-0.0306,-0.0305,-0.0304,-0.0229,-0.0227,-0.0226,-0.0205,-0.0205,-0.0206,-0.0206,-0.0124,-0.012,-0.0117,0,0,0,0,0,0,0,0,0,0,0,0,0,-0.0369,-0.043,-0.0306,-0.0284,-0.0282,-0.0229,-0.0227,-0.0226,-0.0205,-0.0205,-0.0206,-0.0206,-0.0125,-0.0121,-0.0117,-0.0079,0,0,-0.0105,-0.0103,0,0,0,0,0,0,0,0,-0.0372,-0.0364,-0.0289,-0.0286,-0.0283,-0.0227,-0.0242,-0.0177,-0.0204,-0.0234,-0.0206,-0.0207,-0.0157,-0.015,-0.0134,-0.0075,-0.0072,-0.0104,-0.0102,-0.01,-0.0099,0,0,0,0,0,0,0,-0.0377,-0.0367,-0.0275,-0.0287,-0.0284,-0.0277,-0.0269,-0.0229,-0.0192,-0.0231,-0.0229,-0.0221,-0.0155,-0.0138,-0.0132,-0.007,-0.0105,-0.0101,-0.0099,-0.0097,0.0023,0.0024,0,0,0,0,0,0,-0.0385,-0.0371,-0.0278,-0.0273,-0.033,-0.0275,-0.0265,-0.0244,-0.0193,-0.0186,-0.022,-0.022,-0.0144,-0.0136,-0.0129,-0.0081,-0.01,-0.0097,-0.0094,0.0022,0.0023,0.0024,0,0,0,0,0,0,-0.0388,-0.0377,-0.0281,-0.0321,-0.0309,-0.0272,-0.0248,-0.0242,-0.0225,-0.0184,-0.0177,-0.021,-0.0144,-0.0134,-0.0092,-0.0078,-0.0095,-0.0091,0.0021,0.0022,0.0024,0.0014,0,0,0,0,0,0,-0.0392,-0.0378,-0.0364,-0.0321,-0.0307,-0.0246,-0.0247,-0.024,-0.0219,-0.0218,-0.0173,-0.0166,-0.0144,-0.0098,-0.0088,-0.0073,-0.0088,0.002,0.0022,0.0023,0.0014,0.0015,0.0016,0,0,0,0,0,-0.0397,-0.0369,-0.0364,-0.0353,-0.0289,-0.0245,-0.0237,-0.0214,-0.0218,-0.0203,-0.0177,-0.0167,-0.0081,-0.0094,-0.0082,-0.0066,0.0019,0.0021,0.0023,0.0013,0.0015,0.0016,0,0,0,0,0,0,-0.041,-0.0363,-0.0357,-0.0315,-0.0285,-0.0242,-0.0222,-0.0213,-0.018,-0.018,-0.0152,-0.0142,-0.0101,-0.0079,-0.0094,-0.0027,-0.0031,-0.0027,-0.0042,-0.004,-0.0039,-0.0044,-0.0085,0,0,0,0,0,-0.0408,-0.0378,-0.0339,-0.0306,-0.0291,-0.0259,-0.024,-0.0225,-0.0192,-0.0178,-0.0149,-0.0117,-0.0082,-0.006,-0.0026,0.0016,0.0027,0.0033,0.0035,0.0036,0.0039,0.0064,0.0067,0.003,0.003,0.003,0,0,-0.0404,-0.0375,-0.0357,-0.0308,-0.0282,-0.0251,-0.0249,-0.0215,-0.0192,-0.0173,-0.0131,-0.0109,-0.0071,-0.0028,-0.0008,-0.0009,0.0052,0.0038,0.0039,0.0042,0.0066,0.007,0.0073,0.0031,0.0031,0.0031,0,0,-0.038,-0.0355,-0.0325,-0.03,-0.0263,-0.0242,-0.0235,-0.0194,-0.0179,-0.0137,-0.0123,-0.0094,-0.0035,-0.0008,0.0013,0.0045,0.0056,0.0056,0.0063,0.0087,0.009,0.0093,0.0105,0.0109,0.0059,0.0059,0.0059,0,-0.0379,-0.0332,-0.031,-0.0278,-0.0257,-0.024,-0.0209,-0.0185,-0.0138,-0.0123,-0.0125,-0.0052,-0.0025,0.0024,0.0032,0.0048,0.0058,0.0051,0.0087,0.009,0.0093,0.0105,0.011,0.0059,0.0059,0.0059,0.0059,0,-0.0333,-0.0301,-0.028,-0.0237,-0.0213,-0.0181,-0.0154,-0.0132,-0.012,-0.0099,-0.0056,-0.0024,0.0017,0.0029,0.0043,0.008,0.0079,0.0082,0.0078,0.0096,0.0108,0.0113,0.0058,0.0058,0.0058,0.0059,0,0,-0.0313,-0.026,-0.0252,-0.0233,-0.019,-0.0165,-0.0132,-0.0094,-0.0076,-0.0044,-0.0015,0.0033,0.0035,0.0059,0.0076,0.0096,0.012,0.0097,0.0098,0.01,0.0164,0.0163,0.0167,0.0127,0.0128,0.0128,0.0161,0,-0.0284,-0.0226,-0.0206,-0.0158,-0.0128,-0.0113,-0.0084,-0.0055,-0.0035,-0.0005,0.0017,0.0051,0.0052,0.0066,0.0087,0.0113,0.0134,0.0111,0.0155,0.0156,0.0145,0.0174,0.0172,0.0202,0.0166,0.0167,0.0167,0,-0.0241,-0.021,-0.016,-0.0122,-0.0109,-0.0084,-0.0047,-0.002,0.0014,0.0027,0.0053,0.0067,0.0103,0.0096,0.0146,0.0129,0.0148,0.0164,0.0165,0.0171,0.0163,0.0181,0.0212,0.0216,0.0175,0.0174,0.0174,0,-0.0231,-0.0178,-0.014,-0.0124,-0.0079,-0.0062,-0.0042,-0.001,0.0012,0.0044,0.0059,0.0095,0.0115,0.0143,0.0167,0.016,0.0214,0.021,0.0227,0.0227,0.0239,0.0238,0.0274,0.025,0.025,0.025,0.025,0,-0.02,-0.0169,-0.0136,-0.0113,-0.0078,-0.0055,-0.0021,-0.0,0.0028,0.0056,0.0072,0.0098,0.0128,0.0158,0.0177,0.0215,0.0224,0.0237,0.0241,0.0236,0.0234,0.0249,0.0248,0.0251,0.0251,0.025,0.025,0,-0.0183,-0.0159,-0.0118,-0.0079,-0.0069,-0.0045,-0.0012,0.0012,0.0032,0.0067,0.0076,0.0109,0.0145,0.0171,0.0218,0.0231,0.0272,0.0277,0.0261,0.0263,0.0279,0.0278,0.0327,0.0335,0.0304,0.0305,0.0305,0,-0.0163,-0.014,-0.01,-0.0081,-0.0061,-0.0031,-0.0009,0.0014,0.0036,0.0076,0.0095,0.0131,0.0162,0.0219,0.0248,0.0284,0.029,0.0305,0.0296,0.0289,0.0291,0.029,0.0292,0.0306,0.0306,0.0307,0.0307,0,-0.0132,-0.0122,-0.0092,-0.0058,-0.0033,-0.0005,0.0024,0.0039,0.0067,0.0091,0.0128,0.0151,0.0198,0.0235,0.0274,0.0295,0.0306,0.0309,0.0315,0.031,0.03,0.0306,0.0265,0.0308,0.0308,0.0308,0.0308,0.0308,-0.0112,-0.0091,-0.006,-0.0027,-0.0003,0.0023,0.0046,0.0068,0.0099,0.0138,0.015,0.0188,0.0221,0.0274,0.0295,0.0326,0.0326,0.0334,0.0337,0.0339,0.0339,0.0294,0.0333,0.0333,0.0333,0.0333,0.0333,0,-0.008,-0.0059,-0.0029,0.0009,0.0035,0.0041,0.0073,0.0094,0.0127,0.0156,0.0185,0.0227,0.0262,0.0293,0.033,0.0348,0.0354,0.0357,0.0357,0.0362,0.0337,0.0328,0.0352,0.0352,0.0352,0.0352,0.0352,0.0352,-0.0059,-0.0023,-0.0009,0.004,0.006,0.0096,0.0114,0.0138,0.0162,0.0207,0.0236,0.0255,0.0285,0.0324,0.0357,0.0365,0.0378,0.038,0.0389,0.0366,0.0363,0.0361,0.0353,0.0382,0.0382,0.0412,0.0412,0.0413]}]]